Le nostre stazioni meteo in Italia

Pubblicità
Il mio iltempo24.it
Capri, Italia (16294): Temperatura & dewpoint: 19.05.2019 08:00:00 - 25.05.2019 08:00:00 (CEST)Capri, Italia (16294): velocità del vento: 19.05.2019 08:00:00 - 25.05.2019 08:00:00 (CEST)Capri, Italia (16294): direzione del vento: 19.05.2019 08:00:00 - 25.05.2019 08:00:00 (CEST)Capri, Italia (16294): reduced air pressure: 19.05.2019 08:00:00 - 25.05.2019 08:00:00 (CEST)Capri, Italia (16294): visibility: 19.05.2019 08:00:00 - 25.05.2019 08:00:00 (CEST)
Data & Tempo tt [°C] td [°C] ff [km/h] ff [kn] dd ppp [hPa] vv [km]
25.05.2019 08:00:00 - - - - - - -
25.05.2019 07:00:00 15,0 14,0 0 0 N - 10
25.05.2019 06:00:00 15,0 13,0 0 0 N - 10
25.05.2019 05:00:00 14,8 13,2 0 0 N 1015,2 10
25.05.2019 04:00:00 15,0 13,0 0 0 N - 10
25.05.2019 03:00:00 15,0 13,0 0 0 N - 10
25.05.2019 02:00:00 14,8 12,8 0 0 N 1015,4 20
25.05.2019 01:00:00 15,0 13,0 4 2 OSO - 10
25.05.2019 00:00:00 16,0 14,0 0 0 N - 10
24.05.2019 23:00:00 15,8 13,7 0 0 N 1016,0 20
24.05.2019 22:00:00 16,0 13,0 0 0 N - 10
24.05.2019 21:00:00 17,0 13,0 0 0 N - 10
24.05.2019 20:00:00 18,6 13,7 4 2 OSO 1015,2 20
24.05.2019 19:00:00 19,0 13,0 9 5 OSO - 10
24.05.2019 18:00:00 19,0 13,0 8 4 OSO - 10
24.05.2019 17:00:00 19,6 13,1 13 7 OSO 1015,8 20
24.05.2019 16:00:00 20,0 14,0 8 4 OSO - 10
24.05.2019 15:00:00 19,0 13,0 9 5 OSO - 10
24.05.2019 14:00:00 19,0 13,4 4 2 OSO 1016,7 20
24.05.2019 13:00:00 19,0 14,0 9 5 OSO - 10
24.05.2019 12:00:00 18,0 13,0 5 3 OSO - 10
24.05.2019 11:00:00 17,0 12,3 0 0 N 1017,0 20
24.05.2019 10:00:00 17,0 13,0 0 0 N - 10
24.05.2019 09:00:00 17,0 14,0 0 0 N - 10
24.05.2019 08:00:00 15,6 13,8 0 0 N 1016,6 10
24.05.2019 07:00:00 15,0 13,0 0 0 N - 10
24.05.2019 06:00:00 16,0 14,0 5 3 ONO - 10
24.05.2019 05:00:00 15,4 13,6 5 3 ONO 1016,2 10
24.05.2019 04:00:00 15,0 13,0 5 3 ONO - 10
24.05.2019 03:00:00 16,0 14,0 0 0 N - 10
24.05.2019 02:00:00 15,8 13,7 0 0 N 1017,1 10
24.05.2019 01:00:00 15,0 13,0 0 0 N - 10
24.05.2019 00:00:00 15,0 13,0 0 0 N - 10
23.05.2019 23:00:00 15,2 12,2 0 0 N 1017,1 10
23.05.2019 22:00:00 16,0 13,0 0 0 N - 10
23.05.2019 21:00:00 17,0 12,0 0 0 N - 10
23.05.2019 20:00:00 18,2 12,7 11 6 OSO 1017,0 10
23.05.2019 19:00:00 18,0 13,0 11 6 O - 10
23.05.2019 18:00:00 18,0 12,0 9 5 O - 10
23.05.2019 17:00:00 19,0 12,1 11 6 OSO 1016,9 10
23.05.2019 16:00:00 19,0 11,0 9 5 O - 10
23.05.2019 15:00:00 19,0 12,0 9 5 OSO - 10
23.05.2019 14:00:00 18,2 12,9 13 7 O 1017,9 10
23.05.2019 13:00:00 18,0 14,0 11 6 OSO - 10
23.05.2019 12:00:00 18,0 14,0 5 3 OSO - 10
23.05.2019 11:00:00 17,2 13,3 0 0 N 1017,8 10
23.05.2019 10:00:00 17,0 14,0 0 0 N - 10
23.05.2019 09:00:00 16,0 14,0 0 0 N - 10
23.05.2019 08:00:00 15,4 14,1 0 0 N 1017,4 10
23.05.2019 07:00:00 15,0 14,0 0 0 N - 10
23.05.2019 06:00:00 15,0 13,0 2 1 - - 10
23.05.2019 05:00:00 14,6 13,3 2 1 N 1018,5 20
23.05.2019 04:00:00 15,0 14,0 0 0 N - 10
23.05.2019 03:00:00 15,0 14,0 0 0 N - 10
23.05.2019 02:00:00 15,0 13,5 0 0 N 1018,1 20
23.05.2019 01:00:00 15,0 14,0 0 0 N - 10
23.05.2019 00:00:00 15,0 14,0 0 0 N - 10
22.05.2019 23:00:00 15,2 13,6 0 0 N 1017,6 20
22.05.2019 22:00:00 15,0 14,0 0 0 N - 10
22.05.2019 21:00:00 16,0 14,0 2 1 OSO - 10
22.05.2019 20:00:00 17,0 13,0 4 2 OSO 1017,3 20
22.05.2019 19:00:00 18,0 14,0 5 3 OSO - 10
22.05.2019 18:00:00 18,0 13,0 8 4 OSO - 10
22.05.2019 17:00:00 18,8 13,7 5 3 OSO 1017,8 20
22.05.2019 16:00:00 18,0 13,0 11 6 OSO - 10
22.05.2019 15:00:00 18,0 12,0 11 6 OSO - 10
22.05.2019 14:00:00 18,8 12,6 4 2 SO 1017,9 20
22.05.2019 13:00:00 19,0 13,0 4 2 S - 10
22.05.2019 12:00:00 19,0 12,0 2 1 SO - 10
22.05.2019 11:00:00 19,0 10,6 4 2 O 1017,9 20
22.05.2019 10:00:00 18,0 13,0 2 1 SE - 10
22.05.2019 09:00:00 17,0 14,0 5 3 S - 10
22.05.2019 08:00:00 15,8 12,9 0 0 N 1017,4 20
22.05.2019 07:00:00 15,0 13,0 0 0 N - 10
22.05.2019 06:00:00 15,0 13,0 5 3 O - 10
22.05.2019 05:00:00 15,0 12,7 9 5 O 1017,4 10
22.05.2019 04:00:00 15,0 13,0 8 4 O - 10
22.05.2019 03:00:00 15,0 13,0 0 0 N - 10
22.05.2019 02:00:00 15,0 12,7 0 0 N 1018,2 20
22.05.2019 01:00:00 15,0 13,0 9 5 O - 10
22.05.2019 00:00:00 15,0 13,0 5 3 O - 10
21.05.2019 23:00:00 15,0 12,7 9 5 O 1018,2 20
21.05.2019 22:00:00 15,0 13,0 9 5 O - 10
21.05.2019 21:00:00 16,0 13,0 0 0 N - 10
21.05.2019 20:00:00 16,2 12,0 9 5 O 1017,3 20
21.05.2019 19:00:00 18,0 12,0 9 5 O - 10
21.05.2019 18:00:00 19,0 13,0 9 5 O - 10
21.05.2019 17:00:00 19,2 13,2 15 8 O 1017,1 20
21.05.2019 16:00:00 20,0 14,0 13 7 O - 10
21.05.2019 15:00:00 19,0 13,0 13 7 O - 10
21.05.2019 14:00:00 19,0 11,6 11 6 O 1016,9 20
21.05.2019 13:00:00 18,0 11,0 11 6 OSO - 10
21.05.2019 12:00:00 17,0 12,0 18 10 O - 10
21.05.2019 11:00:00 17,0 13,9 22 12 OSO 1016,1 20
21.05.2019 10:00:00 17,0 14,0 21 11 OSO - 10
21.05.2019 09:00:00 16,0 12,0 15 8 O - 10
21.05.2019 08:00:00 15,6 12,2 16 9 O 1014,0 20
21.05.2019 07:00:00 16,0 13,0 18 10 O - 10
21.05.2019 06:00:00 15,0 13,0 9 5 OSO - 10
21.05.2019 05:00:00 15,0 12,5 9 5 O 1014,1 10
21.05.2019 04:00:00 14,0 12,0 8 4 O - 10
21.05.2019 03:00:00 15,0 12,0 5 3 O - 10
21.05.2019 02:00:00 15,0 12,9 8 4 O 1014,1 10
21.05.2019 01:00:00 15,0 11,0 13 7 OSO - 10
21.05.2019 00:00:00 15,0 11,0 13 7 O - 10
20.05.2019 23:00:00 14,8 10,6 13 7 O 1013,9 20
20.05.2019 22:00:00 - - - - - - -
20.05.2019 21:00:00 15,0 11,0 9 5 O - 10
20.05.2019 20:00:00 15,4 10,6 11 6 O 1013,0 10
20.05.2019 19:00:00 17,0 10,0 11 6 OSO - 10
20.05.2019 18:00:00 17,0 10,0 8 4 OSO - 10
20.05.2019 17:00:00 17,4 11,4 5 3 OSO 1012,8 20
20.05.2019 16:00:00 14,0 9,0 5 3 SSO - 10
20.05.2019 15:00:00 16,0 12,0 16 9 O - 10
20.05.2019 14:00:00 18,0 12,0 16 9 O 1011,8 20
20.05.2019 13:00:00 18,0 14,0 15 8 O - 10
20.05.2019 12:00:00 - - - - - - -
20.05.2019 11:00:00 16,4 13,3 18 10 O 1011,4 20
20.05.2019 10:00:00 16,0 13,0 18 10 O - 10
20.05.2019 09:00:00 16,0 13,0 18 10 O - 10
20.05.2019 08:00:00 15,2 13,2 18 10 O 1009,9 10
20.05.2019 07:00:00 15,0 13,0 11 6 OSO - 10
20.05.2019 06:00:00 15,0 13,0 9 5 OSO - 10
20.05.2019 05:00:00 14,8 12,7 11 6 OSO 1010,1 10
20.05.2019 04:00:00 - - - - - - -
20.05.2019 03:00:00 15,0 12,0 5 3 OSO - 10
20.05.2019 02:00:00 14,8 11,8 5 3 OSO 1010,1 10
20.05.2019 01:00:00 15,0 10,0 9 5 OSO - 10
20.05.2019 00:00:00 15,0 10,0 8 4 OSO - 10
19.05.2019 23:00:00 15,0 10,6 11 6 O 1010,1 20
19.05.2019 22:00:00 15,0 11,0 11 6 O - 10
19.05.2019 21:00:00 15,0 10,0 9 5 O - 10
19.05.2019 20:00:00 16,2 9,2 15 8 O 1008,9 10
19.05.2019 19:00:00 18,0 10,0 15 8 O - 10
19.05.2019 18:00:00 18,0 11,0 16 9 O - 10
19.05.2019 17:00:00 17,2 11,3 18 10 O 1007,8 10
19.05.2019 16:00:00 18,0 12,0 22 12 O - 10
19.05.2019 15:00:00 17,0 12,0 22 12 O - 10
19.05.2019 14:00:00 17,8 13,7 21 11 O 1006,7 10
19.05.2019 13:00:00 17,0 14,0 21 11 O - 10
19.05.2019 12:00:00 17,0 14,0 18 10 O - 10
19.05.2019 11:00:00 16,8 13,9 13 7 O 1005,8 12
19.05.2019 10:00:00 17,0 14,0 9 5 OSO - 10
19.05.2019 09:00:00 15,0 13,0 0 0 N - 10
19.05.2019 08:00:00 15,4 13,6 5 3 OSO 1005,9 20

tt = Temperatura
td = dewpoint
ff = velocità del vento
dd = direzione del vento
ppp = reduced air pressure
vv = visibility

Stazioni seguenti

WeatherPro
AMSI
MeteoEarth